Wind_Speed
97 97 96 95 94 94 93 93 93 92 92 92 92 91 91 91 90 90 89 88 88 87 87 86 86 85 85 84 84 83 83 83 83 83 83 84 84 84 85 86 87 88 89 90 91 91 92 93 93 93 94 94 94 94 94 94 93 93 92 91 91 90 89 87 85 83 80 77 74 70 67 64 62 60 58 56 55 53 51 50 49 48 47 47 47 47
97 96 95 95 94 93 93 93 93 92 92 92 92 91 90 90 89 88 87 86 85 85 84 84 84 84 84 84 84 84 84 85 85 86 87 87 88 88 89 90 90 91 92 93 93 94 95 95 95 95 96 96 96 96 96 95 95 94 94 93 92 91 89 88 86 83 81 78 74 71 68 66 64 62 61 59 58 56 54 53 51 50 49 49 49 49
97 97 96 96 95 95 94 95 95 94 93 92 91 90 89 88 87 86 85 84 84 83 84 84 85 85 86 86 86 86 87 87 88 89 90 90 91 92 93 93 94 94 95 95 96 96 97 97 97 98 98 98 98 98 97 97 96 96 95 94 93 91 90 88 86 84 81 78 75 73 70 68 67 65 64 63 61 59 58 56 54 53 52 51 51 51
98 98 97 97 96 96 95 95 94 93 92 90 89 88 87 86 84 84 83 83 83 84 84 85 86 87 88 88 89 89 90 90 91 92 92 93 94 95 96 96 97 97 97 98 98 98 99 99 99 99 100 100 99 99 99 99 98 97 96 95 93 91 90 88 86 83 81 79 77 74 72 71 70 69 68 66 64 63 61 59 58 56 55 54 53 53
97 96 96 95 94 93 92 91 89 88 88 88 87 86 85 84 83 83 83 84 84 85 86 87 88 89 90 91 92 92 93 93 94 95 95 96 97 97 98 99 99 100 100 100 100 101 101 101 101 101 101 101 101 101 100 100 99 98 96 95 93 91 89 87 85 83 81 79 78 76 74 73 73 72 70 68 67 66 64 63 61 59 58 57 56 55
94 93 93 91 89 87 86 86 85 86 86 86 86 85 85 85 85 85 85 86 86 87 88 89 90 91 92 93 94 95 96 96 97 97 98 98 99 100 100 101 101 102 102 102 103 103 103 103 103 103 103 103 102 102 101 100 99 98 96 95 93 91 89 87 85 83 82 80 79 78 76 75 74 73 72 71 70 69 67 66 64 63 62 60 59 58
92 91 89 87 85 84 83 83 84 85 85 86 87 87 87 87 87 87 87 88 88 89 90 91 92 93 94 95 97 98 98 99 100 100 101 101 101 102 102 102 103 103 104 104 105 105 105 105 104 104 104 104 103 102 102 100 99 97 96 94 92 90 89 87 85 84 82 81 80 79 78 77 76 75 74 73 72 71 70 69 67 66 65 64 62 61
90 88 86 83 82 82 83 84 85 86 87 88 88 89 89 90 90 90 90 90 91 92 93 93 94 95 96 97 99 100 101 101 102 103 103 103 104 104 104 104 105 105 106 106 106 107 107 106 106 105 104 104 103 102 101 100 98 97 95 93 92 90 89 87 86 85 84 83 82 81 80 79 78 78 77 76 74 73 72 71 70 69 68 67 66 64
86 84 83 82 82 82 84 85 87 88 89 90 90 91 92 92 93 93 93 94 94 95 95 96 97 97 98 99 100 101 102 103 104 105 105 106 106 106 106 106 107 107 107 108 108 108 108 107 106 105 104 103 102 100 99 98 97 96 94 93 92 91 89 88 87 86 85 84 83 83 82 81 80 80 79 78 77 76 75 74 73 72 71 70 69 67
84 83 82 83 84 84 85 86 89 90 91 92 93 93 94 95 95 96 96 97 97 97 98 98 99 100 100 101 102 103 104 105 105 106 107 108 108 108 109 109 109 109 109 109 108 108 108 107 106 105 103 102 100 99 98 97 96 95 94 93 92 91 90 89 89 88 87 86 86 85 84 83 83 82 81 80 79 78 77 76 75 74 73 72 71 70
84 84 84 84 86 87 87 89 90 92 93 94 95 96 97 97 98 98 99 99 100 100 100 101 101 102 102 103 104 104 105 106 107 108 109 109 110 110 110 110 110 110 109 109 108 107 107 106 105 103 102 100 99 98 97 96 95 95 94 93 93 92 91 91 90 90 89 88 88 87 86 86 85 84 83 83 82 81 80 79 78 77 76 75 74 73
85 85 86 86 87 89 90 91 92 94 95 96 97 99 100 100 100 101 101 102 102 103 103 103 103 104 104 105 106 106 107 108 108 109 110 110 111 111 111 111 110 110 109 108 107 106 105 104 103 102 101 100 99 98 97 96 96 95 95 94 94 93 93 92 92 91 91 90 90 89 88 88 87 86 86 85 84 83 83 82 81 80 79 78 77 76
87 87 88 89 90 91 92 94 95 96 98 99 100 101 102 102 103 103 103 104 104 105 105 106 106 106 106 107 108 108 109 109 109 110 110 110 110 110 110 110 109 108 107 107 106 105 104 103 102 102 101 100 99 98 98 97 96 96 96 96 95 95 95 94 94 93 93 92 92 91 91 90 90 89 88 88 87 86 85 84 83 82 81 80 79 78
89 90 91 92 93 94 95 97 98 99 100 102 102 103 104 105 105 105 106 107 107 107 107 108 108 108 108 108 109 109 109 109 109 109 109 109 108 108 108 107 107 106 106 105 105 104 104 103 103 102 102 101 100 100 99 98 98 97 97 97 97 97 96 96 96 95 95 94 94 94 93 93 92 91 91 90 89 89 88 87 86 85 84 83 82 81
92 93 94 95 96 98 99 100 101 102 103 104 105 106 107 107 108 108 109 109 109 109 109 109 109 109 109 109 109 108 108 108 108 107 107 106 106 105 105 105 104 104 104 104 104 104 104 103 103 103 103 103 102 102 101 100 100 99 99 99 99 98 98 98 98 97 97 97 96 96 95 95 94 93 93 92 92 91 90 90 89 88 87 86 85 84
95 96 97 98 99 101 102 103 104 105 106 107 108 108 109 110 110 110 110 111 110 110 110 110 110 109 109 108 107 107 106 106 106 105 105 104 104 103 103 103 103 103 102 103 103 103 104 104 104 104 104 104 104 104 103 103 102 101 101 100 100 100 100 100 100 99 99 98 98 98 97 97 96 96 95 94 94 93 93 92 91 90 89 88 87 86
98 99 100 101 102 104 105 105 106 108 108 109 110 110 111 111 111 111 110 110 110 109 109 108 107 107 107 107 106 105 105 105 104 104 103 103 103 102 102 102 102 102 102 102 103 103 104 104 105 105 106 106 106 106 106 106 105 104 103 102 102 102 102 102 102 101 101 100 100 100 99 99 98 98 97 96 96 95 95 94 93 92 91 91 90 89
101 102 103 104 105 106 107 108 108 109 110 110 110 110 110 110 110 109 109 109 108 108 107 106 106 106 106 106 106 105 104 104 104 104 104 103 103 103 103 103 103 103 103 103 103 104 104 105 106 106 107 107 108 108 109 108 108 107 106 105 104 104 104 104 103 103 103 102 102 101 101 100 100 99 99 98 98 97 97 96 95 94 94 93 92 91
104 104 105 106 107 107 108 108 109 109 109 109 109 109 109 109 108 108 108 108 107 107 107 107 106 106 106 106 107 106 106 106 106 106 105 105 105 104 104 104 105 105 104 104 105 105 105 106 106 107 107 108 109 109 110 110 110 110 109 108 107 106 105 105 105 105 105 104 104 103 103 102 102 101 101 100 100 99 98 98 97 96 95 94 94 93
105 105 106 106 106 107 107 107 107 108 108 108 108 108 108 108 108 108 108 108 108 108 108 108 108 108 107 107 108 108 107 107 108 108 108 107 107 107 106 106 107 107 107 106 106 106 107 107 107 108 108 108 109 110 110 111 111 111 111 110 109 108 107 107 107 106 106 106 106 105 104 104 103 103 102 102 101 100 100 99 98 98 97 96 95 94
105 105 105 105 105 106 106 107 107 107 108 108 108 109 109 109 109 110 110 110 110 110 109 109 109 109 109 109 109 110 109 109 110 110 110 109 109 109 108 108 108 109 109 108 108 108 108 108 108 108 109 109 109 110 110 111 112 112 112 112 111 110 109 108 108 108 108 107 107 107 106 105 105 105 104 103 103 102 101 101 100 99 98 98 97 96
104 104 105 105 105 106 107 107 108 108 109 109 109 110 110 110 111 111 111 111 111 111 111 111 111 111 111 111 111 112 111 111 112 112 112 111 111 111 110 110 110 110 110 110 109 109 109 110 110 110 110 110 110 110 110 111 112 113 113 113 113 112 111 110 110 109 109 109 109 108 108 107 107 106 106 105 104 104 103 102 101 101 100 99 98 97
104 105 106 106 107 107 108 108 109 109 109 110 110 111 111 111 112 112 113 113 113 113 113 113 113 113 113 113 113 113 114 114 114 114 114 114 113 113 112 111 112 112 112 112 111 111 111 111 112 111 111 111 111 111 111 112 112 113 113 114 114 114 113 112 111 111 110 110 110 110 109 109 108 108 107 107 106 105 105 104 103 102 101 101 100 99
106 106 107 107 108 108 109 109 110 110 111 111 112 113 113 113 114 114 114 115 115 115 115 115 115 115 115 115 115 115 116 116 116 116 116 116 116 115 114 113 114 114 115 114 113 113 113 113 113 113 113 113 114 114 114 113 113 114 114 115 115 116 115 115 114 113 112 112 111 111 111 111 110 109 109 108 108 107 106 105 105 104 103 102 101 101
107 107 108 108 109 109 110 111 111 112 113 113 114 115 115 115 116 116 116 117 117 117 117 117 117 117 117 117 117 118 118 118 118 118 119 119 118 117 116 116 116 117 117 117 116 115 115 115 115 115 115 116 116 116 116 116 115 115 115 116 116 117 117 117 116 115 114 113 113 113 113 112 112 111 111 110 109 108 108 107 106 105 105 104 103 102
109 109 110 110 111 112 112 113 114 114 115 116 116 117 117 117 118 118 118 119 119 119 119 119 119 119 119 119 119 120 120 120 120 120 121 121 121 120 119 118 118 118 119 119 118 117 117 117 117 117 117 117 117 118 118 118 118 117 117 117 117 117 118 118 118 117 116 115 115 114 114 114 114 113 112 112 111 110 109 109 108 107 106 105 105 104
111 112 112 113 113 114 115 115 116 117 117 118 118 119 119 119 120 120 121 121 121 120 120 121 121 121 120 120 121 121 121 122 122 122 122 122 122 122 121 120 119 119 120 120 120 119 118 118 118 118 118 118 118 119 119 120 120 119 119 118 118 118 118 119 119 119 119 118 117 116 115 115 115 115 114 113 112 112 111 110 109 109 108 107 106 106
114 114 115 116 116 117 117 118 118 119 119 120 120 121 121 121 121 122 122 122 122 122 122 122 122 122 122 122 122 122 122 123 123 123 123 123 124 124 123 121 120 120 121 121 120 119 118 118 118 118 118 118 118 119 119 120 120 120 120 119 119 118 118 119 119 120 120 120 119 118 117 116 116 116 115 115 114 113 112 111 111 110 109 108 108 107
116 117 118 118 119 119 120 120 120 121 121 121 122 122 122 122 123 124 124 123 123 123 123 124 123 123 123 123 123 123 123 123 124 124 124 125 125 125 123 121 120 120 121 121 120 119 118 117 117 117 117 117 117 118 118 119 120 120 120 120 119 118 118 118 119 119 120 121 120 119 118 117 116 116 116 115 115 114 113 113 112 111 110 110 109 109
119 119 120 120 121 121 122 122 122 122 122 123 123 124 124 124 125 125 125 125 125 125 125 125 125 124 124 124 124 124 124 124 124 124 124 126 126 125 123 121 120 119 120 120 120 119 117 116 115 114 115 115 116 116 117 117 118 119 119 119 119 118 117 117 117 118 119 120 120 120 119 117 116 116 116 115 115 115 114 113 113 112 112 111 111 110
120 121 121 122 122 123 123 123 124 124 124 124 125 125 126 126 127 127 127 127 127 126 126 126 126 125 125 124 124 125 125 124 124 123 124 126 126 124 121 120 119 118 118 118 118 117 116 114 112 111 111 112 113 114 114 114 115 116 117 117 117 116 115 115 115 116 117 118 119 119 118 117 115 115 114 114 114 114 114 114 113 113 113 112 112 111
121 121 122 123 123 124 125 125 125 125 126 126 127 127 128 128 129 129 129 128 128 128 127 127 127 126 125 124 124 124 125 124 123 123 123 124 124 122 119 118 117 116 116 115 114 114 114 113 111 109 109 109 110 111 111 111 112 112 113 114 114 114 113 112 112 113 114 115 116 116 116 115 114 113 112 112 113 113 113 113 113 113 113 112 112 111
122 122 123 124 125 125 126 127 127 127 127 128 128 129 129 129 130 130 130 129 129 128 128 127 127 126 125 123 123 122 122 122 122 121 120 121 120 119 116 115 114 114 113 112 111 110 110 109 108 107 107 107 107 107 107 107 108 109 109 110 110 110 110 109 109 109 110 111 112 113 113 112 111 110 110 110 110 111 111 111 112 112 112 112 111 111
123 124 125 125 126 127 128 128 128 129 129 129 130 130 130 130 130 130 130 129 128 128 127 127 126 125 124 123 121 120 119 119 118 118 117 117 116 115 113 112 111 111 111 110 108 107 106 105 104 104 104 103 103 103 103 104 104 104 105 105 106 106 106 106 105 106 106 107 108 108 109 109 108 107 107 107 107 108 109 109 110 111 111 110 110 109
125 125 126 127 128 129 129 129 129 130 130 130 130 130 130 130 130 129 129 128 127 126 125 124 124 123 122 121 120 119 118 116 115 114 114 113 113 111 110 109 107 107 107 106 105 103 102 101 100 99 99 99 99 99 99 99 100 100 100 100 101 101 101 101 101 102 102 102 103 104 105 105 105 104 104 104 104 105 105 106 107 108 109 108 108 107
126 127 128 128 129 129 130 130 130 130 130 130 130 129 129 129 128 127 127 126 125 124 123 122 120 119 118 117 117 116 115 114 112 111 111 110 108 107 106 105 103 102 102 101 100 99 97 96 95 94 94 94 94 94 94 94 95 95 95 96 96 96 97 97 97 97 97 98 99 99 100 101 101 101 100 100 100 101 102 103 104 105 106 105 105 105
127 128 128 128 129 129 129 129 129 129 129 128 128 127 127 126 125 125 124 123 122 121 120 118 117 116 114 113 113 112 112 111 110 109 107 106 104 103 102 100 99 98 97 96 95 94 92 91 90 89 89 89 89 90 90 90 90 90 91 91 91 92 92 92 92 93 93 94 94 95 96 96 97 97 96 96 97 97 98 100 101 102 103 102 102 102
128 128 128 128 128 128 128 127 127 127 126 126 125 124 124 123 122 121 120 119 118 117 116 115 113 112 111 110 109 108 107 107 106 105 104 102 100 99 97 96 94 93 92 91 90 89 87 86 86 85 85 85 85 85 85 86 86 86 87 87 87 87 88 88 88 89 89 90 90 90 91 92 92 92 93 93 93 94 95 96 97 98 99 99 99 100
126 126 126 126 125 125 125 124 124 123 122 122 121 121 120 119 118 117 116 115 114 113 112 111 110 108 107 106 105 104 103 103 102 101 99 98 96 94 92 91 90 89 87 86 85 84 83 82 82 81 81 81 81 81 81 82 82 83 83 83 83 83 84 84 84 85 85 85 86 86 87 87 88 88 89 89 89 90 91 93 94 95 95 96 96 97
124 124 123 123 122 122 121 121 120 119 119 118 117 117 116 115 114 113 112 111 110 109 108 106 105 104 103 102 101 101 100 99 97 96 95 93 91 90 88 87 86 85 83 82 81 80 79 78 78 78 78 78 78 78 78 78 79 79 79 79 80 80 80 81 81 81 82 82 82 82 83 83 84 84 85 85 86 87 88 89 90 91 92 93 93 94
121 120 120 119 119 118 117 117 116 115 114 114 113 113 112 111 110 109 108 106 105 104 103 102 101 100 99 98 97 97 96 95 93 92 90 89 87 86 84 83 82 81 80 79 78 76 76 75 75 75 75 75 75 75 75 75 75 76 76 76 77 77 77 78 78 78 78 78 79 79 79 80 80 81 82 82 83 83 84 85 87 88 88 89 90 90
117 117 116 115 115 114 113 112 112 111 110 109 109 108 107 106 105 104 103 102 101 100 99 98 97 96 95 94 93 92 92 90 89 88 87 85 84 82 81 80 78 77 76 75 74 73 73 72 72 72 72 72 72 72 72 72 72 72 73 73 74 74 75 75 75 75 75 76 76 76 76 77 77 78 78 79 80 80 81 82 83 84 85 86 86 86
113 113 112 111 111 110 109 108 107 106 105 105 104 103 102 101 100 99 98 98 97 96 95 94 93 92 91 90 90 89 88 86 85 84 83 82 80 79 78 76 75 74 73 72 71 71 70 70 70 70 70 69 69 69 68 68 69 70 70 71 71 72 72 73 73 73 73 73 73 73 74 74 75 75 75 76 77 77 78 79 80 81 82 82 82 83
109 109 108 107 106 105 104 103 103 102 101 100 99 98 97 96 95 94 94 93 93 92 91 90 89 88 87 87 86 85 84 83 82 81 80 78 77 76 75 73 72 71 70 69 68 68 67 67 67 67 67 67 66 65 65 65 66 67 68 68 69 70 71 71 71 70 70 70 71 71 71 72 72 72 73 74 74 75 76 77 77 78 78 78 79 79
105 104 103 102 101 100 100 99 98 97 96 95 95 94 93 92 91 90 89 89 88 87 87 86 85 84 83 83 82 81 80 79 78 77 76 75 74 73 72 71 69 68 67 66 65 65 65 64 65 65 65 64 64 63 62 63 64 65 66 66 67 68 69 69 69 68 68 68 68 69 69 69 70 70 71 71 72 73 73 74 74 75 75 75 75 76
100 99 98 97 97 96 95 94 93 92 92 91 90 89 88 87 86 86 85 84 84 83 83 82 81 80 80 79 78 77 77 76 75 74 73 72 71 70 69 68 67 65 64 63 62 62 62 62 62 62 62 62 61 61 61 61 62 63 64 65 65 66 67 67 67 66 66 66 66 67 67 67 67 67 68 69 69 70 70 71 71 71 71 72 72 73
95 95 94 93 92 91 91 90 89 88 87 87 86 85 84 83 82 82 81 80 80 79 79 78 77 77 76 75 74 74 73 72 72 71 70 70 69 68 66 65 64 62 61 60 59 59 59 59 59 59 59 59 59 59 60 60 61 61 62 63 64 64 65 65 64 64 64 64 64 65 65 64 64 65 65 66 66 67 68 68 68 68 68 69 69 70
91 90 89 88 88 87 86 86 85 84 83 82 82 81 80 79 78 78 77 77 76 75 75 74 73 73 72 72 71 70 70 69 69 68 68 67 66 64 63 62 60 59 58 58 57 57 56 56 56 56 56 56 57 58 58 59 60 60 61 61 61 62 62 62 62 62 62 62 62 62 62 62 62 62 62 63 64 65 65 65 65 66 66 67 67 68
86 85 85 84 83 83 82 81 81 80 79 78 78 77 76 75 75 74 74 73 72 72 71 70 70 69 68 68 67 67 66 66 65 65 64 63 62 61 60 58 57 57 56 55 55 54 54 53 53 53 54 54 55 56 57 57 58 58 58 59 59 60 60 60 60 59 59 60 60 60 59 59 59 59 60 61 62 63 63 63 63 64 64 65 65 67
82 81 81 80 79 79 78 77 77 76 75 75 74 73 73 72 71 71 70 69 69 68 67 67 66 66 65 65 64 63 63 62 62 61 61 60 59 58 56 55 54 54 53 52 52 51 51 51 51 51 52 52 53 54 54 55 55 56 56 56 57 57 57 57 57 57 57 57 57 57 57 57 57 58 59 60 61 61 61 61 62 62 62 63 64 65
78 77 76 76 75 75 74 74 73 72 72 71 70 70 69 69 68 67 66 66 65 65 64 63 63 62 62 61 61 60 59 59 58 58 57 56 55 54 53 52 52 51 50 49 49 48 48 48 49 49 50 50 51 51 52 52 53 53 53 54 54 54 54 54 54 54 55 55 55 55 55 55 56 57 59 60 60 60 60 60 61 61 61 62 63 64
Wind_Direction
280 280 279 279 279 278 278 278 277 277 277 277 276 276 276 276 277 277 278 279 280 281 283 284 285 286 287 288 288 289 289 289 289 289 289 288 288 288 288 287 287 287 288 288 288 289 289 290 290 291 291 292 292 293 293 294 294 295 295 296 296 296 297 297 297 297 297 296 296 295 294 293 292 291 291 290 289 289 288 287 287 286 286 286 286 286
279 279 278 278 277 277 277 276 276 276 275 276 276 276 277 278 278 279 280 281 282 284 284 285 286 287 287 287 287 287 287 287 287 287 287 287 287 287 287 287 287 287 287 288 288 289 289 290 291 291 292 292 292 293 293 294 294 295 295 295 296 296 296 296 296 296 296 296 295 294 293 293 292 291 291 290 290 289 288 287 287 286 286 285 285 285
279 278 278 278 277 277 277 277 277 277 277 278 278 279 280 281 282 283 283 284 284 285 285 285 286 286 286 286 286 286 286 286 286 286 286 286 286 286 286 287 287 287 288 288 289 289 290 290 291 291 292 292 293 293 293 294 294 294 295 295 295 295 295 296 296 295 295 295 294 294 293 292 292 292 291 291 290 290 289 288 287 287 286 286 285 285
280 280 279 279 280 280 280 280 280 280 281 281 282 283 284 284 284 284 284 284 284 284 284 284 284 284 284 284 284 284 284 284 284 285 285 285 286 286 286 287 287 288 288 289 289 290 290 290 291 291 292 292 292 293 293 293 294 294 294 294 295 295 295 295 294 294 294 294 293 293 292 292 292 292 292 291 291 290 290 289 288 288 287 286 286 286
281 281 281 282 282 282 283 283 283 283 283 284 284 284 284 284 284 283 283 283 283 283 283 283 283 283 283 284 284 284 284 284 284 284 284 285 285 286 286 287 287 288 288 289 289 289 290 290 290 291 291 292 292 292 293 293 293 293 294 294 294 294 294 293 293 293 293 292 292 292 292 291 291 292 291 291 291 291 290 290 289 288 288 287 287 286
281 282 283 283 283 283 283 283 283 283 283 283 283 283 283 283 282 282 282 282 282 282 282 282 282 282 282 283 283 283 283 283 284 284 284 285 285 286 286 287 287 288 288 288 289 289 289 290 290 290 291 291 291 292 292 292 292 292 293 293 292 292 292 292 292 292 291 291 291 291 291 291 291 291 291 290 290 290 290 290 289 289 289 288 287 287
281 282 282 282 282 282 281 281 281 281 281 281 281 281 281 281 281 281 281 281 281 281 281 281 281 281 281 282 282 282 283 283 284 284 284 285 285 285 286 286 287 287 287 288 288 288 289 289 289 290 290 290 291 291 291 291 291 291 291 291 291 291 291 291 291 290 290 290 290 290 290 290 290 290 290 290 290 290 290 290 289 289 289 288 288 288
281 281 281 281 280 280 279 279 279 279 279 279 279 280 280 281 281 281 280 280 280 280 280 280 280 280 280 281 281 282 283 283 284 284 284 285 285 285 286 286 286 286 287 287 287 288 288 288 289 289 289 289 290 290 290 290 290 290 290 290 290 290 290 290 289 289 289 289 289 289 289 289 289 289 289 289 289 289 289 289 289 289 288 288 288 288
280 280 280 279 278 278 278 278 278 278 278 278 278 279 279 279 280 280 280 279 279 279 279 279 279 279 280 280 281 281 282 283 283 284 284 284 285 285 285 285 285 286 286 286 287 287 287 288 288 288 288 288 288 289 289 289 289 289 289 289 289 289 289 288 288 288 288 288 288 288 288 288 288 288 288 288 288 288 288 288 288 288 288 288 288 287
280 279 279 278 278 277 277 277 277 277 277 277 277 277 278 278 278 278 278 278 278 278 279 279 279 279 280 280 281 281 281 282 282 283 283 284 284 284 285 285 285 285 285 286 286 286 287 287 287 287 287 287 287 287 288 288 288 288 288 287 287 287 287 287 287 287 287 287 287 287 287 287 287 287 287 287 287 287 287 287 287 287 287 287 287 287
280 279 279 278 278 277 276 276 276 276 277 276 276 277 277 276 276 276 277 277 278 278 279 279 279 279 279 280 280 280 281 281 281 282 282 283 283 284 284 284 285 285 285 285 286 286 286 286 286 286 286 286 286 286 286 286 286 286 286 286 286 286 286 286 286 286 286 286 286 286 286 286 287 287 287 287 287 287 286 286 286 286 286 286 286 286
279 279 278 278 277 277 276 276 275 275 275 275 275 275 275 276 276 276 276 277 277 278 278 279 279 279 279 279 279 280 280 280 281 281 282 282 283 283 284 284 284 284 285 285 285 285 285 285 285 285 285 285 285 285 285 285 285 285 285 285 285 285 285 285 285 285 285 285 286 286 286 286 286 286 286 286 286 286 286 285 285 285 285 285 285 285
278 278 277 277 276 275 275 275 275 274 274 274 274 274 275 276 277 277 277 277 277 278 278 278 279 279 279 279 279 279 280 280 280 280 281 281 282 282 283 283 284 284 284 284 284 284 284 284 285 284 284 284 284 284 284 284 284 284 284 284 284 284 284 284 284 284 284 284 285 285 285 285 285 285 285 285 285 285 285 285 285 284 284 284 284 284
277 276 276 275 275 275 274 274 274 274 274 274 275 275 276 276 277 277 277 277 277 278 278 278 278 279 279 279 279 279 279 279 280 280 280 280 281 281 281 282 282 283 283 283 284 284 284 284 284 284 283 283 283 283 283 283 283 283 283 283 283 283 283 283 283 283 283 283 283 283 284 284 284 284 284 284 284 284 284 284 284 284 284 283 283 283
276 276 275 275 275 275 274 274 274 274 275 275 275 276 276 276 277 277 277 277 278 278 278 278 278 279 279 278 279 279 279 279 279 279 279 279 279 280 280 280 280 281 281 282 282 282 282 283 283 283 283 282 282 282 282 282 282 282 282 282 282 282 282 282 282 282 282 282 282 282 282 282 282 282 282 282 282 282 282 282 282 283 283 283 283 283
276 275 275 275 275 275 275 275 275 275 275 275 276 276 276 276 277 277 278 278 278 278 278 278 278 278 278 278 278 278 278 278 278 278 278 278 278 278 278 278 279 279 279 280 280 281 281 281 281 281 282 282 282 281 281 281 281 281 281 280 280 280 281 281 281 281 281 281 281 281 281 281 281 281 281 281 281 281 281 281 281 281 281 281 281 282
275 275 275 275 275 275 275 275 275 275 276 276 276 277 277 277 277 278 278 278 278 278 278 278 278 278 278 278 278 278 278 278 277 277 277 277 277 278 278 278 278 278 278 278 278 279 279 280 280 280 280 281 281 281 281 281 280 280 280 280 280 279 279 279 280 279 279 279 279 279 279 280 280 280 280 280 280 280 280 280 280 280 280 280 280 280
275 275 275 275 275 276 276 276 276 277 277 277 277 277 277 278 278 278 278 278 278 278 278 278 278 278 278 278 278 278 278 278 278 278 278 278 278 278 278 278 278 278 278 278 278 278 278 278 278 279 279 279 280 280 280 280 280 280 280 279 279 279 279 279 279 279 278 278 278 278 278 278 278 278 278 278 278 278 279 279 279 279 279 279 279 279
276 276 276 276 276 276 277 277 277 277 277 277 277 278 278 278 278 279 279 279 279 279 279 279 279 279 279 279 279 279 279 279 279 279 279 279 278 279 278 278 278 278 278 277 277 277 277 277 277 277 278 278 278 279 279 279 279 279 279 279 279 278 278 278 278 278 278 278 277 277 277 277 277 277 277 277 277 277 277 277 277 278 278 278 278 278
277 277 277 277 277 277 277 277 277 278 278 278 279 279 279 279 279 280 280 280 280 280 280 280 280 280 280 280 280 280 280 280 280 279 279 279 279 279 279 278 278 278 278 277 277 277 276 276 276 276 276 276 277 277 277 278 278 278 278 278 278 278 277 277 277 277 277 277 277 277 276 276 276 276 276 276 276 276 276 276 276 276 276 277 277 277
277 278 278 278 278 278 278 278 279 279 279 280 280 280 280 280 280 281 281 281 281 281 281 281 281 281 281 280 280 280 280 280 280 280 279 279 279 279 279 278 278 278 278 277 277 277 276 276 276 276 275 275 275 276 276 276 277 277 277 277 277 277 277 276 276 276 276 276 276 276 275 275 275 275 275 275 275 275 275 275 275 275 275 275 275 275
278 278 279 279 279 279 279 280 280 280 280 281 281 281 281 281 281 281 281 281 281 281 281 281 281 281 281 281 281 281 281 280 280 280 280 280 279 279 279 278 278 278 278 277 277 277 277 276 276 276 275 275 275 275 275 275 275 275 276 276 276 276 276 276 275 275 275 275 275 275 274 274 274 274 274 274 274 274 274 274 274 274 274 274 274 274
279 280 280 280 280 280 280 281 281 281 281 281 281 281 282 282 282 282 282 282 282 282 282 282 282 282 281 281 281 281 281 281 280 280 280 280 280 279 279 279 279 278 278 278 278 277 277 277 276 276 276 276 275 275 275 274 274 274 274 275 275 275 275 275 274 274 274 274 274 274 273 273 273 273 273 273 273 273 273 273 273 273 273 273 273 273
281 281 281 281 281 282 282 282 282 282 282 282 282 282 282 282 282 282 282 282 282 282 282 282 282 282 282 282 282 282 281 281 281 281 281 280 280 280 280 279 279 279 278 278 278 278 277 277 277 277 276 276 276 275 275 274 274 274 273 273 274 274 274 274 274 273 273 273 273 272 272 272 272 272 272 272 272 272 272 272 272 272 272 272 272 272
283 283 283 283 283 283 283 283 283 283 283 283 283 283 283 283 283 283 283 283 283 283 283 283 283 282 282 282 282 282 282 281 281 281 281 280 280 280 280 280 279 279 278 278 278 278 277 277 277 276 276 276 276 275 275 274 274 273 273 273 273 273 273 273 273 273 272 272 272 271 271 271 271 271 271 271 270 270 270 270 270 270 270 270 270 270
284 284 284 284 284 284 284 284 284 284 284 283 283 283 283 283 283 283 283 283 283 283 283 283 282 282 282 282 282 282 281 281 281 281 281 280 280 280 280 279 279 279 278 278 278 277 277 277 276 276 276 275 275 275 275 274 274 273 273 272 272 272 272 272 272 272 272 271 271 271 270 270 270 270 270 269 269 269 269 269 269 269 269 269 269 269
285 285 285 285 285 285 285 284 284 284 284 284 284 284 284 284 283 283 283 283 283 283 283 282 282 282 282 282 281 281 281 281 281 281 281 280 280 280 280 279 279 279 278 278 277 277 277 276 276 276 275 275 274 274 274 274 273 273 272 272 271 271 271 271 271 271 271 270 270 270 269 269 269 269 269 268 268 268 268 268 268 268 268 268 268 268
286 286 286 286 285 285 285 285 285 285 284 284 284 284 284 283 283 283 283 283 283 283 283 282 282 282 282 282 282 282 281 281 281 281 281 281 281 280 280 280 279 279 278 278 278 277 277 276 276 275 275 274 274 274 273 273 273 273 272 272 271 270 270 270 270 270 270 269 269 269 268 268 268 268 268 267 267 267 267 267 267 267 267 267 267 267
286 286 286 286 286 286 285 285 285 285 285 284 284 284 284 284 284 283 283 283 283 283 283 283 283 282 282 282 282 282 282 282 282 282 282 281 281 281 280 280 280 279 279 278 278 278 277 276 276 275 275 274 274 273 273 273 272 272 271 271 270 270 269 269 268 268 268 268 268 267 267 267 266 266 266 266 266 266 266 266 266 266 266 265 265 265
286 286 286 286 286 286 285 285 285 285 285 285 285 285 285 285 284 284 284 284 284 284 284 284 283 283 283 283 283 283 283 283 282 282 282 282 281 281 281 280 280 280 279 279 278 278 277 277 276 275 275 274 274 273 272 272 271 271 271 270 270 269 268 268 267 267 266 266 266 266 266 265 265 265 265 265 265 265 265 264 264 264 264 264 264 264
286 286 286 286 286 286 286 286 286 286 286 285 285 285 285 285 285 285 285 285 285 285 285 284 284 284 284 284 284 283 283 283 283 282 282 282 281 281 281 281 280 280 279 279 278 278 278 277 276 276 275 274 274 273 272 271 271 270 270 269 269 268 267 267 266 265 265 265 265 264 264 264 264 263 263 263 263 263 263 263 263 263 263 263 263 263
286 286 286 286 286 286 286 286 286 286 286 286 286 286 286 286 286 286 286 286 285 285 285 285 285 285 284 284 284 283 283 283 283 282 282 281 281 281 281 281 280 280 279 279 278 278 277 277 277 276 275 274 273 272 271 271 270 269 268 268 267 267 266 266 265 264 264 263 263 263 263 263 262 262 262 261 261 261 261 261 261 261 261 261 261 261
287 287 287 287 287 287 287 287 287 287 287 287 286 286 286 286 286 286 286 286 286 286 285 285 285 285 285 284 284 284 283 283 282 282 282 281 281 281 281 280 280 280 279 279 278 278 277 277 276 275 274 273 272 271 271 270 269 268 267 267 266 266 265 265 264 263 263 262 262 262 262 261 261 261 260 260 260 259 259 259 259 259 259 259 259 259
287 287 287 287 287 287 287 287 287 287 287 287 286 286 286 286 286 286 286 286 286 285 285 285 285 285 284 284 284 284 283 283 282 282 281 281 281 280 280 280 279 279 278 278 277 277 276 275 275 274 273 272 271 270 270 269 268 267 266 266 265 265 264 264 263 262 262 261 261 260 260 260 260 259 259 258 258 258 258 258 258 258 257 257 257 257
288 288 288 287 287 287 287 287 287 287 287 286 286 286 286 286 285 285 285 285 285 285 285 285 284 284 284 284 284 284 283 283 282 282 281 281 280 280 280 279 279 278 278 277 277 276 275 274 274 273 272 271 270 270 269 268 267 266 266 265 264 264 263 263 262 261 261 260 260 259 259 259 258 258 257 257 256 256 256 256 256 256 256 256 256 255
288 288 288 287 287 287 287 287 287 286 286 286 286 286 285 285 285 285 285 285 285 284 284 284 284 284 284 284 283 283 283 282 282 282 281 280 280 280 279 278 278 277 277 276 275 275 274 274 273 272 271 271 270 269 268 267 267 266 265 264 264 263 262 261 261 260 259 259 258 258 257 257 257 256 256 255 255 255 254 254 254 254 254 254 254 254
288 288 287 287 287 287 286 286 286 286 286 286 285 285 285 285 285 285 284 284 284 284 284 284 284 284 283 283 283 283 282 282 281 281 280 280 279 279 278 278 277 276 276 275 275 274 274 273 273 272 271 270 269 268 267 267 266 265 264 263 262 262 261 260 259 259 258 258 257 256 256 256 255 255 255 254 254 253 253 252 252 252 252 252 252 252
288 287 287 287 287 286 286 286 286 285 285 285 285 285 285 285 284 284 284 284 284 284 284 283 283 283 283 283 282 282 281 281 280 280 279 279 279 278 278 277 277 276 276 275 275 274 274 273 272 271 270 269 268 267 266 265 264 263 263 262 261 260 260 259 258 258 257 256 256 255 255 255 254 254 253 253 252 252 251 251 251 251 251 251 251 250
287 287 287 286 286 286 286 286 285 285 285 285 285 284 284 284 284 284 284 284 283 283 283 283 283 283 283 282 282 281 281 280 280 279 279 278 278 278 278 277 277 276 276 275 275 274 273 272 271 270 269 268 267 266 265 264 263 262 261 261 260 259 258 258 257 257 256 255 255 254 254 253 253 253 252 252 251 250 250 249 249 249 249 249 249 249
287 287 286 286 286 286 285 285 285 285 285 284 284 284 284 284 284 283 283 283 283 283 283 283 283 282 282 282 281 281 280 280 279 279 279 279 278 278 278 277 277 276 276 275 274 273 272 271 270 269 268 267 266 264 263 263 262 261 260 260 259 258 257 257 256 256 255 254 254 253 253 252 252 251 251 250 250 249 249 248 248 248 247 247 247 247
286 286 286 286 286 285 285 285 285 284 284 284 284 284 284 283 283 283 283 283 283 283 283 282 282 282 281 281 281 280 280 280 279 279 279 279 279 278 278 277 277 276 275 274 273 272 271 270 269 268 266 265 264 263 262 262 261 260 259 259 258 257 256 256 255 254 254 253 253 252 251 251 250 250 249 249 248 248 247 247 246 246 246 246 245 245
286 286 286 285 285 285 285 285 284 284 284 284 284 283 283 283 283 283 283 283 283 283 282 282 282 281 281 281 280 280 280 280 280 279 279 279 278 278 277 277 276 275 274 273 273 271 270 269 268 267 265 264 263 262 261 261 260 259 259 258 257 256 255 255 254 253 252 252 251 251 250 250 249 248 248 247 247 246 246 245 245 244 244 244 244 244
286 286 285 285 285 285 285 284 284 284 284 284 284 283 283 283 283 283 283 283 283 282 282 282 282 281 281 281 281 280 280 280 279 279 279 278 278 277 276 276 275 274 273 272 271 270 269 268 267 266 265 263 262 261 260 259 259 258 257 256 256 255 254 253 253 252 251 251 250 249 249 248 248 247 246 246 245 245 244 244 243 243 243 242 242 242
286 286 285 285 285 285 285 285 284 284 284 284 284 284 283 283 283 283 283 282 282 282 282 282 281 281 281 281 280 280 280 279 279 279 278 278 277 276 276 275 274 273 272 271 270 269 268 267 266 265 264 263 262 261 259 258 257 257 256 255 254 253 253 252 251 251 250 249 249 248 247 247 246 245 245 244 244 243 243 242 242 242 241 241 241 240
286 286 286 285 285 285 285 285 285 285 284 284 284 284 283 283 283 283 282 282 282 282 282 281 281 281 280 280 280 279 279 279 279 278 278 277 276 276 275 274 273 272 271 270 269 268 267 266 265 264 264 263 262 260 259 257 256 255 254 253 252 252 251 251 250 249 248 248 247 247 246 245 245 244 243 243 242 242 242 241 241 240 240 239 239 238
286 286 286 286 286 286 285 285 285 285 284 284 284 284 283 283 283 283 282 282 282 281 281 281 280 280 280 280 279 279 279 278 278 278 277 276 276 275 274 273 273 272 271 270 268 267 266 265 264 263 262 262 261 259 258 256 254 253 252 251 251 250 250 249 249 248 247 246 246 245 245 244 243 243 242 242 241 241 241 240 240 239 238 238 237 236
287 286 286 286 286 286 286 285 285 285 284 284 284 283 283 283 283 282 282 281 281 281 281 280 280 280 280 279 279 279 278 278 278 277 276 276 275 274 274 273 273 272 271 270 268 266 265 264 262 261 261 260 259 257 256 254 253 252 251 250 249 249 248 248 248 247 246 245 244 244 243 243 242 241 241 240 240 240 239 239 238 237 237 236 235 234
287 287 287 286 286 286 286 285 285 285 284 284 284 283 283 283 282 282 282 281 281 281 280 280 280 280 279 279 279 278 278 277 277 276 276 275 275 274 274 273 272 271 270 269 267 266 264 263 261 260 259 257 256 255 254 253 252 251 250 249 248 247 247 247 246 245 245 244 243 242 242 241 240 240 239 239 238 238 237 237 236 235 235 234 233 232
287 287 287 286 286 286 285 285 285 285 284 284 284 283 283 283 282 282 282 281 281 281 280 280 280 279 279 279 278 278 277 277 276 276 275 275 275 274 273 273 272 270 269 268 266 265 263 262 260 259 257 256 254 253 252 251 251 250 249 248 247 247 246 245 245 244 243 242 242 241 240 239 238 238 237 236 236 236 235 235 234 233 232 231 230 230
287 287 287 286 286 286 285 285 285 285 284 284 284 283 283 283 282 282 282 282 281 281 281 280 280 279 279 278 278 277 277 276 276 276 275 275 274 274 273 272 271 269 268 267 265 264 263 261 259 257 256 254 253 252 251 250 250 249 248 247 247 246 245 244 243 242 242 241 240 239 238 237 236 235 234 234 233 233 232 232 231 231 230 229 228 227
287 287 287 286 286 286 285 285 285 285 284 284 284 284 283 283 283 282 282 282 281 281 281 280 280 279 279 278 278 277 277 276 276 275 275 274 274 273 272 271 270 269 267 266 264 263 261 260 258 256 254 253 252 251 250 249 249 248 247 247 246 245 244 243 242 241 240 239 238 237 235 234 233 232 232 231 231 230 230 229 228 228 227 227 226 225
Height
10538 10538 10537 10536 10535 10534 10533 10532 10532 10531 10529 10528 10528 10528 10527 10527 10526 10525 10524 10522 10520 10518 10516 10514 10512 10511 10510 10510 10510 10510 10510 10510 10510 10510 10510 10510 10510 10511 10511 10511 10511 10510 10510 10509 10508 10508 10508 10507 10507 10506 10505 10505 10504 10503 10503 10503 10503 10503 10503 10502 10502 10502 10502 10501 10500 10500 10499 10499 10499 10499 10499 10500 10500 10500 10500 10500 10500 10501 10501 10502 10503 10503 10502 10501 10500 10500
10532 10532 10530 10530 10529 10528 10527 10525 10525 10524 10523 10522 10522 10521 10520 10520 10518 10517 10516 10515 10513 10511 10510 10508 10507 10506 10505 10505 10504 10504 10504 10504 10503 10503 10503 10503 10503 10503 10503 10503 10503 10503 10503 10502 10502 10501 10500 10500 10499 10498 10498 10497 10497 10496 10496 10495 10495 10495 10495 10495 10495 10495 10495 10494 10493 10493 10493 10492 10493 10493 10493 10493 10493 10493 10493 10494 10495 10495 10496 10497 10498 10499 10498 10497 10496 10496
10524 10523 10522 10522 10521 10520 10519 10517 10517 10516 10515 10514 10513 10512 10512 10510 10510 10508 10508 10507 10505 10504 10503 10502 10501 10500 10499 10499 10498 10498 10498 10498 10498 10498 10497 10497 10496 10496 10496 10495 10495 10495 10495 10495 10494 10493 10493 10492 10492 10491 10490 10490 10489 10489 10488 10488 10488 10488 10487 10488 10488 10488 10488 10488 10487 10487 10487 10487 10487 10486 10487 10487 10487 10487 10487 10488 10488 10489 10490 10491 10492 10493 10492 10492 10491 10491
10514 10513 10512 10512 10511 10510 10508 10507 10506 10505 10505 10504 10503 10503 10503 10502 10502 10501 10500 10500 10499 10498 10497 10496 10495 10494 10493 10492 10492 10492 10492 10492 10492 10492 10491 10490 10490 10489 10488 10488 10487 10487 10487 10487 10487 10486 10485 10485 10484 10483 10483 10482 10482 10482 10481 10481 10480 10480 10480 10480 10481 10482 10482 10482 10481 10480 10480 10480 10480 10480 10480 10480 10480 10480 10481 10481 10482 10482 10483 10485 10486 10487 10487 10486 10485 10485
10503 10503 10502 10502 10501 10500 10498 10498 10497 10496 10495 10495 10495 10495 10495 10495 10495 10494 10494 10493 10493 10492 10491 10490 10489 10488 10487 10486 10485 10485 10485 10485 10485 10485 10485 10484 10483 10483 10482 10481 10480 10479 10479 10479 10478 10478 10478 10477 10477 10476 10475 10475 10475 10474 10474 10473 10473 10473 10473 10473 10473 10473 10474 10475 10474 10474 10473 10473 10473 10474 10475 10475 10475 10474 10475 10475 10475 10475 10477 10477 10479 10480 10480 10480 10480 10480
10495 10494 10493 10493 10493 10492 10490 10490 10489 10488 10488 10488 10488 10488 10488 10488 10488 10488 10487 10487 10487 10486 10485 10485 10483 10483 10481 10480 10478 10478 10477 10477 10477 10477 10477 10477 10477 10476 10475 10475 10473 10472 10472 10471 10471 10471 10470 10470 10470 10470 10469 10468 10468 10467 10467 10467 10467 10466 10466 10466 10466 10466 10467 10467 10467 10468 10468 10468 10468 10468 10468 10469 10469 10469 10469 10470 10470 10470 10470 10470 10472 10473 10473 10473 10473 10473
10489 10488 10487 10487 10486 10485 10484 10484 10483 10482 10482 10482 10481 10481 10481 10481 10481 10481 10480 10480 10480 10480 10479 10478 10478 10477 10476 10474 10473 10472 10470 10470 10469 10469 10469 10469 10469 10469 10468 10468 10467 10467 10465 10464 10463 10463 10463 10463 10463 10463 10463 10462 10461 10460 10460 10460 10459 10459 10459 10458 10458 10459 10459 10460 10460 10461 10461 10462 10462 10462 10462 10462 10462 10463 10463 10465 10465 10465 10465 10465 10465 10466 10467 10467 10467 10468
10483 10482 10481 10480 10479 10478 10478 10477 10477 10476 10475 10475 10475 10474 10474 10473 10473 10473 10473 10473 10473 10473 10472 10472 10472 10471 10470 10468 10467 10466 10465 10463 10462 10462 10461 10461 10461 10461 10461 10461 10460 10460 10459 10458 10457 10456 10455 10455 10455 10455 10455 10455 10455 10453 10453 10452 10452 10452 10452 10452 10452 10452 10452 10452 10453 10453 10453 10454 10455 10455 10455 10455 10456 10457 10457 10458 10458 10458 10458 10459 10459 10460 10460 10461 10462 10463
10477 10475 10474 10473 10473 10473 10472 10470 10469 10468 10468 10468 10467 10467 10467 10466 10465 10465 10465 10465 10465 10465 10465 10465 10465 10464 10463 10463 10462 10460 10459 10457 10456 10455 10453 10453 10452 10452 10452 10453 10453 10452 10452 10451 10450 10448 10448 10447 10447 10447 10447 10448 10447 10447 10446 10445 10445 10445 10445 10445 10444 10445 10445 10445 10445 10446 10447 10447 10448 10448 10449 10449 10450 10450 10450 10452 10452 10452 10452 10453 10453 10453 10454 10455 10456 10457
10469 10468 10468 10467 10466 10466 10465 10463 10462 10460 10460 10460 10460 10459 10459 10459 10458 10457 10457 10457 10457 10457 10458 10458 10458 10457 10457 10456 10455 10455 10453 10452 10450 10448 10447 10446 10445 10444 10443 10443 10443 10443 10443 10443 10442 10441 10440 10439 10438 10438 10438 10439 10440 10440 10439 10438 10438 10437 10437 10437 10437 10437 10438 10438 10438 10438 10439 10440 10440 10441 10442 10443 10443 10443 10443 10444 10445 10445 10445 10446 10447 10448 10448 10448 10450 10452
10462 10461 10460 10460 10458 10458 10458 10457 10455 10453 10453 10452 10452 10450 10450 10451 10451 10451 10451 10450 10450 10450 10450 10450 10450 10450 10450 10449 10448 10447 10447 10445 10443 10442 10441 10440 10438 10437 10435 10435 10434 10434 10434 10433 10433 10433 10432 10431 10430 10430 10430 10430 10430 10431 10432 10432 10431 10430 10430 10430 10430 10430 10430 10430 10431 10432 10432 10432 10433 10433 10434 10435 10436 10437 10437 10437 10438 10438 10439 10440 10440 10442 10442 10443 10444 10445
10453 10453 10453 10452 10451 10450 10450 10448 10447 10446 10445 10445 10444 10442 10442 10442 10442 10444 10444 10443 10442 10442 10442 10442 10442 10442 10442 10442 10440 10439 10438 10438 10437 10435 10434 10433 10431 10429 10428 10427 10425 10425 10425 10424 10424 10423 10423 10422 10422 10421 10421 10421 10422 10422 10423 10423 10423 10423 10423 10422 10422 10423 10423 10423 10423 10424 10425 10425 10425 10426 10427 10427 10428 10430 10430 10431 10431 10432 10432 10433 10433 10434 10435 10437 10437 10438
10446 10445 10445 10445 10443 10443 10442 10440 10439 10438 10437 10437 10436 10435 10433 10433 10433 10435 10435 10435 10434 10434 10434 10433 10433 10432 10432 10433 10432 10431 10430 10430 10428 10428 10427 10426 10424 10422 10421 10419 10417 10416 10415 10415 10415 10414 10413 10413 10413 10412 10412 10413 10413 10413 10414 10415 10415 10416 10415 10415 10415 10415 10415 10416 10417 10417 10417 10418 10418 10418 10419 10420 10421 10422 10423 10423 10424 10425 10425 10426 10427 10427 10428 10430 10431 10432
10438 10438 10438 10437 10436 10435 10433 10432 10432 10430 10429 10428 10428 10427 10426 10425 10425 10426 10426 10425 10424 10425 10426 10426 10425 10423 10423 10423 10422 10422 10421 10420 10420 10419 10419 10418 10417 10415 10415 10413 10411 10409 10408 10407 10406 10405 10405 10405 10404 10403 10403 10403 10404 10405 10405 10407 10407 10408 10408 10408 10408 10408 10408 10408 10409 10410 10410 10410 10411 10412 10412 10413 10413 10414 10415 10416 10417 10417 10418 10418 10419 10420 10421 10423 10424 10425
10431 10431 10430 10429 10427 10426 10425 10424 10423 10422 10420 10419 10418 10418 10417 10416 10416 10416 10416 10415 10415 10415 10416 10416 10415 10413 10413 10413 10412 10412 10411 10410 10410 10410 10410 10410 10408 10408 10408 10407 10405 10403 10403 10402 10400 10397 10397 10397 10396 10395 10394 10395 10395 10395 10396 10397 10398 10400 10400 10400 10400 10400 10400 10401 10401 10402 10402 10403 10403 10404 10405 10405 10406 10407 10408 10408 10409 10410 10411 10412 10412 10413 10414 10417 10418 10419
10423 10423 10422 10421 10419 10417 10416 10415 10414 10412 10410 10409 10409 10408 10408 10407 10405 10405 10406 10406 10405 10405 10405 10405 10405 10403 10402 10402 10402 10402 10402 10401 10400 10401 10402 10402 10400 10400 10401 10401 10399 10397 10397 10397 10395 10392 10390 10389 10388 10387 10386 10385 10385 10385 10386 10387 10389 10390 10392 10392 10393 10393 10393 10393 10393 10394 10395 10395 10396 10397 10397 10398 10398 10399 10400 10401 10402 10403 10403 10404 10405 10407 10408 10410 10412 10412
10416 10415 10413 10412 10410 10408 10407 10405 10405 10403 10401 10400 10399 10398 10398 10397 10396 10395 10395 10395 10395 10394 10394 10394 10395 10394 10392 10390 10390 10391 10392 10392 10391 10390 10392 10393 10392 10391 10392 10393 10392 10390 10390 10391 10389 10387 10385 10383 10382 10380 10378 10378 10377 10375 10375 10377 10378 10380 10382 10383 10384 10385 10385 10385 10385 10385 10386 10387 10388 10388 10390 10390 10391 10392 10393 10393 10394 10395 10397 10397 10398 10399 10400 10402 10404 10405
10407 10406 10405 10403 10401 10399 10397 10397 10395 10393 10391 10390 10389 10388 10387 10387 10386 10385 10385 10384 10383 10383 10383 10383 10383 10384 10383 10382 10379 10378 10380 10383 10382 10380 10380 10383 10382 10382 10382 10383 10383 10382 10382 10383 10382 10380 10378 10377 10375 10373 10372 10371 10369 10368 10367 10366 10367 10368 10371 10373 10375 10376 10377 10377 10376 10377 10377 10378 10379 10380 10381 10382 10383 10383 10385 10385 10387 10388 10389 10390 10390 10392 10393 10395 10396 10397
10397 10396 10395 10394 10392 10390 10388 10387 10385 10383 10382 10380 10378 10378 10377 10376 10375 10375 10375 10373 10373 10373 10373 10373 10372 10372 10373 10372 10370 10368 10369 10372 10372 10369 10368 10370 10372 10372 10372 10373 10372 10372 10371 10373 10373 10373 10371 10370 10368 10367 10367 10365 10363 10361 10359 10357 10357 10357 10359 10362 10364 10366 10367 10368 10368 10368 10368 10369 10370 10371 10372 10373 10374 10375 10376 10377 10378 10380 10381 10382 10383 10384 10385 10387 10388 10389
10388 10387 10385 10383 10382 10380 10378 10377 10375 10374 10372 10370 10369 10368 10368 10365 10365 10364 10363 10362 10362 10362 10362 10362 10362 10361 10361 10361 10360 10358 10358 10360 10360 10358 10357 10358 10361 10362 10361 10362 10362 10361 10360 10362 10363 10363 10363 10362 10360 10360 10360 10359 10357 10355 10353 10351 10349 10348 10348 10350 10352 10355 10357 10358 10359 10359 10359 10360 10360 10362 10363 10364 10365 10367 10367 10368 10370 10371 10373 10374 10375 10377 10377 10378 10380 10382
10379 10377 10375 10374 10373 10372 10368 10366 10365 10364 10363 10361 10360 10358 10357 10355 10355 10353 10352 10351 10351 10351 10350 10350 10350 10350 10350 10350 10350 10348 10347 10348 10349 10347 10345 10347 10350 10351 10350 10351 10351 10350 10349 10350 10352 10353 10353 10352 10350 10350 10352 10352 10350 10348 10347 10345 10343 10341 10340 10340 10341 10343 10345 10348 10350 10350 10350 10350 10351 10352 10353 10355 10357 10357 10358 10360 10361 10362 10364 10366 10367 10368 10370 10370 10372 10373
10371 10368 10365 10365 10365 10363 10360 10357 10355 10354 10353 10352 10350 10348 10346 10345 10344 10343 10341 10340 10340 10340 10338 10338 10338 10338 10339 10340 10338 10337 10336 10337 10337 10335 10334 10335 10337 10338 10338 10340 10340 10339 10337 10338 10340 10342 10342 10340 10340 10340 10341 10342 10341 10340 10340 10338 10337 10335 10332 10331 10330 10332 10333 10337 10339 10340 10342 10342 10342 10343 10344 10345 10347 10348 10349 10351 10352 10353 10355 10357 10359 10360 10362 10363 10364 10365
10362 10360 10358 10356 10355 10353 10351 10348 10347 10345 10343 10342 10340 10338 10335 10335 10334 10332 10330 10329 10328 10328 10327 10326 10326 10327 10328 10328 10327 10325 10324 10323 10323 10323 10323 10323 10323 10323 10325 10328 10328 10327 10324 10325 10327 10330 10330 10328 10328 10328 10329 10330 10330 10329 10329 10329 10329 10327 10325 10323 10322 10322 10322 10325 10327 10330 10332 10332 10333 10333 10334 10335 10337 10338 10340 10342 10343 10345 10346 10348 10350 10352 10353 10355 10356 10357
10352 10350 10348 10347 10345 10343 10341 10339 10337 10335 10333 10331 10329 10327 10325 10323 10323 10322 10320 10318 10317 10317 10315 10315 10315 10315 10314 10314 10315 10314 10312 10310 10310 10311 10311 10310 10309 10310 10313 10316 10316 10314 10312 10311 10314 10318 10318 10317 10315 10316 10318 10318 10317 10316 10317 10317 10318 10318 10317 10315 10313 10312 10312 10313 10315 10318 10320 10322 10323 10323 10324 10325 10327 10328 10330 10332 10333 10335 10337 10338 10340 10342 10344 10346 10348 10349
10341 10340 10338 10336 10334 10333 10330 10328 10326 10324 10322 10320 10318 10316 10313 10312 10311 10310 10308 10307 10306 10305 10303 10303 10303 10302 10302 10302 10302 10302 10298 10296 10297 10298 10298 10295 10295 10296 10300 10302 10303 10302 10300 10298 10300 10305 10307 10306 10304 10304 10306 10307 10305 10303 10302 10303 10305 10305 10305 10305 10305 10303 10302 10302 10303 10305 10308 10310 10312 10313 10313 10315 10316 10317 10320 10322 10323 10325 10327 10329 10332 10333 10335 10337 10339 10341
10330 10329 10327 10325 10323 10322 10320 10317 10315 10313 10311 10308 10307 10304 10302 10300 10299 10298 10297 10295 10293 10292 10293 10292 10291 10289 10289 10291 10292 10290 10286 10284 10284 10285 10284 10283 10282 10283 10284 10286 10289 10290 10288 10285 10286 10290 10295 10295 10293 10292 10293 10295 10293 10291 10289 10290 10290 10291 10292 10294 10295 10294 10293 10292 10292 10292 10295 10297 10299 10302 10303 10303 10305 10306 10308 10310 10313 10315 10317 10320 10322 10324 10326 10328 10330 10332
10320 10318 10317 10314 10312 10310 10308 10305 10303 10301 10298 10297 10294 10292 10290 10288 10288 10287 10283 10280 10280 10281 10283 10281 10278 10276 10277 10279 10279 10277 10275 10273 10272 10271 10270 10270 10270 10270 10269 10270 10274 10277 10277 10273 10272 10275 10282 10283 10281 10279 10280 10283 10282 10280 10278 10277 10277 10277 10278 10280 10282 10283 10283 10282 10281 10280 10282 10283 10286 10288 10291 10292 10293 10295 10296 10298 10301 10303 10307 10309 10312 10314 10316 10318 10320 10322
10308 10306 10304 10302 10299 10297 10295 10293 10291 10288 10287 10284 10282 10280 10277 10277 10276 10275 10271 10267 10267 10270 10271 10268 10265 10263 10265 10266 10265 10263 10263 10263 10261 10257 10255 10256 10257 10257 10254 10255 10259 10263 10263 10259 10257 10261 10267 10269 10268 10267 10268 10269 10270 10269 10267 10265 10264 10263 10263 10265 10268 10270 10272 10272 10271 10270 10269 10270 10272 10275 10278 10280 10282 10283 10285 10287 10290 10292 10295 10298 10301 10303 10306 10308 10310 10312
10296 10293 10292 10289 10287 10284 10282 10280 10278 10276 10274 10272 10270 10267 10264 10263 10262 10261 10258 10255 10255 10256 10257 10254 10252 10251 10252 10252 10251 10250 10250 10250 10248 10245 10242 10242 10242 10240 10238 10240 10246 10250 10248 10244 10244 10247 10252 10253 10254 10255 10256 10256 10256 10255 10255 10254 10252 10251 10250 10251 10253 10256 10258 10260 10260 10260 10258 10257 10258 10260 10264 10268 10270 10272 10274 10276 10278 10281 10283 10287 10290 10293 10295 10298 10300 10301
10285 10283 10280 10277 10274 10272 10270 10268 10265 10263 10261 10259 10257 10254 10251 10249 10248 10246 10244 10243 10242 10242 10241 10240 10238 10237 10237 10238 10238 10238 10237 10235 10233 10232 10231 10230 10227 10223 10222 10226 10232 10235 10233 10229 10230 10234 10236 10235 10238 10242 10245 10244 10242 10240 10241 10242 10241 10238 10237 10237 10238 10241 10244 10247 10248 10248 10247 10245 10245 10247 10250 10254 10258 10261 10263 10265 10267 10270 10272 10275 10278 10282 10285 10288 10289 10291
10275 10272 10269 10266 10262 10259 10257 10255 10253 10250 10248 10246 10244 10241 10238 10235 10233 10231 10229 10228 10227 10226 10225 10224 10223 10222 10223 10224 10225 10225 10223 10220 10218 10218 10218 10217 10213 10210 10208 10212 10217 10220 10218 10215 10217 10220 10222 10220 10221 10225 10230 10231 10228 10225 10225 10227 10228 10227 10223 10223 10223 10226 10228 10231 10233 10235 10235 10233 10233 10233 10236 10240 10245 10249 10252 10254 10256 10258 10261 10263 10267 10270 10275 10277 10278 10280
10264 10262 10258 10255 10251 10248 10245 10242 10239 10237 10235 10233 10230 10227 10224 10222 10218 10216 10214 10212 10212 10211 10210 10210 10208 10208 10208 10209 10210 10211 10210 10208 10205 10203 10202 10202 10200 10198 10197 10198 10203 10205 10203 10200 10202 10206 10209 10208 10207 10209 10213 10215 10213 10210 10210 10212 10213 10213 10210 10209 10210 10212 10213 10216 10218 10220 10221 10221 10220 10221 10223 10227 10232 10237 10240 10243 10245 10247 10250 10253 10255 10258 10263 10267 10268 10270
10253 10250 10247 10243 10240 10236 10232 10229 10226 10224 10222 10220 10217 10214 10211 10208 10205 10203 10200 10198 10198 10197 10197 10195 10195 10193 10193 10193 10194 10195 10196 10195 10192 10189 10187 10187 10187 10186 10185 10187 10189 10191 10190 10187 10187 10191 10195 10195 10195 10195 10197 10198 10198 10197 10196 10197 10198 10198 10197 10196 10197 10197 10199 10202 10204 10206 10207 10208 10208 10209 10212 10214 10218 10223 10228 10231 10233 10236 10238 10242 10243 10247 10250 10255 10258 10261
10241 10238 10235 10231 10227 10223 10220 10217 10213 10212 10210 10207 10204 10201 10198 10195 10193 10190 10188 10186 10185 10184 10183 10182 10182 10180 10180 10179 10179 10180 10180 10180 10178 10176 10174 10173 10173 10173 10173 10174 10176 10177 10176 10174 10174 10177 10179 10182 10183 10183 10183 10183 10183 10183 10182 10182 10182 10182 10182 10183 10184 10185 10185 10188 10190 10192 10193 10195 10197 10198 10200 10202 10205 10210 10215 10219 10222 10225 10227 10230 10232 10235 10238 10243 10248 10252
10228 10225 10222 10218 10215 10211 10208 10204 10201 10199 10197 10195 10192 10188 10185 10183 10181 10178 10176 10174 10173 10172 10170 10169 10168 10167 10167 10167 10166 10166 10165 10164 10163 10162 10161 10160 10160 10160 10160 10162 10163 10163 10163 10162 10162 10163 10165 10167 10169 10170 10170 10170 10169 10169 10168 10168 10168 10168 10169 10170 10172 10172 10173 10175 10177 10178 10180 10182 10185 10187 10188 10190 10193 10197 10202 10207 10210 10213 10216 10218 10221 10223 10226 10231 10237 10241
10217 10213 10210 10205 10202 10199 10196 10192 10189 10186 10184 10182 10178 10175 10173 10171 10169 10167 10165 10162 10161 10160 10158 10157 10156 10155 10155 10155 10155 10153 10152 10150 10148 10147 10147 10146 10146 10147 10147 10148 10149 10150 10150 10150 10150 10151 10152 10154 10155 10157 10157 10158 10157 10156 10156 10156 10156 10157 10157 10158 10159 10160 10161 10162 10164 10167 10168 10170 10173 10175 10177 10178 10182 10185 10190 10194 10198 10202 10205 10207 10210 10212 10214 10220 10225 10230
10205 10201 10197 10193 10189 10186 10183 10181 10177 10174 10172 10170 10167 10163 10160 10158 10157 10155 10152 10150 10148 10147 10146 10145 10144 10143 10143 10143 10142 10141 10140 10138 10136 10134 10133 10133 10133 10134 10135 10135 10136 10137 10138 10138 10138 10139 10141 10143 10143 10145 10145 10146 10145 10144 10143 10144 10144 10145 10145 10145 10147 10148 10150 10151 10153 10155 10157 10158 10161 10163 10165 10168 10171 10175 10178 10183 10187 10190 10193 10196 10198 10201 10203 10209 10215 10220
10190 10187 10184 10180 10177 10174 10172 10170 10166 10162 10160 10157 10155 10151 10148 10145 10143 10142 10140 10138 10137 10135 10134 10133 10132 10132 10131 10130 10130 10128 10127 10125 10123 10122 10120 10120 10120 10122 10123 10123 10124 10125 10126 10127 10127 10128 10130 10132 10132 10133 10133 10133 10133 10133 10132 10132 10132 10132 10133 10134 10136 10137 10138 10140 10142 10143 10145 10148 10150 10153 10155 10158 10161 10164 10168 10172 10175 10179 10182 10185 10188 10190 10194 10198 10204 10209
10177 10173 10171 10167 10164 10161 10158 10156 10153 10150 10147 10145 10142 10140 10137 10133 10132 10130 10128 10126 10125 10124 10122 10122 10120 10120 10119 10118 10117 10116 10114 10113 10111 10110 10108 10108 10108 10110 10112 10113 10113 10113 10115 10115 10117 10118 10120 10121 10122 10122 10122 10122 10122 10122 10122 10122 10122 10122 10122 10123 10125 10127 10128 10129 10131 10133 10135 10138 10140 10143 10145 10148 10151 10154 10157 10161 10165 10168 10172 10174 10177 10181 10184 10189 10195 10200
10164 10162 10158 10154 10151 10148 10146 10143 10140 10137 10135 10133 10130 10128 10125 10122 10120 10118 10117 10115 10114 10113 10112 10110 10109 10108 10108 10107 10105 10103 10102 10100 10099 10098 10098 10098 10098 10100 10101 10102 10103 10103 10104 10105 10106 10107 10108 10110 10110 10110 10111 10111 10110 10110 10111 10111 10111 10112 10113 10114 10115 10117 10118 10120 10121 10123 10125 10128 10131 10133 10136 10138 10142 10145 10148 10151 10155 10158 10162 10165 10168 10172 10175 10180 10185 10190
10152 10149 10145 10142 10139 10136 10134 10131 10128 10126 10124 10122 10118 10116 10113 10111 10109 10107 10106 10104 10103 10102 10100 10099 10098 10097 10097 10095 10093 10092 10090 10088 10088 10088 10088 10088 10089 10090 10090 10092 10093 10093 10093 10094 10095 10097 10098 10098 10099 10099 10100 10100 10100 10100 10101 10102 10102 10102 10103 10105 10105 10107 10108 10110 10112 10114 10117 10119 10122 10124 10127 10130 10132 10135 10138 10141 10145 10148 10152 10155 10159 10162 10166 10170 10175 10180
10140 10137 10133 10130 10127 10125 10122 10120 10117 10115 10113 10110 10108 10105 10103 10100 10098 10097 10096 10094 10092 10090 10089 10088 10088 10087 10085 10084 10083 10081 10080 10079 10078 10078 10078 10078 10079 10080 10080 10082 10082 10083 10084 10085 10085 10086 10087 10088 10088 10088 10089 10090 10090 10091 10092 10092 10093 10093 10094 10095 10096 10098 10099 10100 10103 10105 10108 10110 10112 10115 10118 10120 10123 10126 10129 10132 10135 10139 10143 10146 10149 10153 10157 10162 10167 10172
10127 10124 10121 10118 10116 10113 10110 10108 10106 10103 10102 10099 10097 10095 10092 10091 10089 10088 10087 10085 10082 10080 10079 10078 10077 10077 10076 10074 10072 10071 10070 10070 10070 10070 10069 10069 10069 10070 10070 10072 10073 10073 10075 10075 10076 10076 10077 10078 10078 10078 10078 10080 10081 10083 10083 10084 10085 10085 10085 10086 10087 10089 10090 10091 10093 10097 10099 10102 10103 10107 10109 10112 10115 10118 10121 10123 10127 10130 10134 10137 10140 10144 10148 10153 10159 10165
10115 10112 10109 10107 10105 10102 10100 10097 10095 10093 10091 10089 10087 10085 10082 10081 10080 10078 10077 10075 10073 10071 10070 10068 10068 10068 10067 10065 10063 10062 10062 10061 10061 10060 10060 10060 10060 10060 10061 10062 10063 10065 10066 10067 10067 10068 10068 10068 10068 10068 10069 10070 10072 10074 10075 10076 10076 10076 10076 10077 10078 10080 10081 10082 10085 10088 10091 10093 10095 10098 10100 10103 10107 10110 10113 10115 10118 10122 10125 10129 10132 10137 10142 10147 10152 10157
10103 10101 10098 10096 10094 10092 10090 10087 10085 10083 10081 10079 10077 10075 10073 10072 10070 10069 10068 10066 10064 10063 10061 10060 10060 10059 10057 10056 10055 10054 10053 10052 10052 10052 10051 10051 10051 10052 10052 10053 10054 10055 10057 10058 10058 10059 10060 10060 10060 10060 10060 10062 10063 10065 10067 10067 10067 10067 10067 10068 10070 10072 10072 10074 10077 10080 10082 10085 10088 10090 10092 10095 10099 10102 10105 10108 10110 10114 10117 10121 10125 10130 10135 10140 10145 10150
10093 10091 10088 10086 10083 10082 10079 10077 10075 10073 10071 10069 10067 10065 10064 10063 10062 10060 10059 10058 10056 10054 10053 10052 10052 10050 10048 10047 10047 10046 10045 10044 10043 10043 10043 10042 10042 10043 10043 10044 10045 10047 10048 10049 10050 10051 10052 10052 10052 10052 10053 10053 10055 10056 10057 10058 10058 10058 10059 10060 10062 10063 10065 10067 10069 10072 10075 10078 10080 10082 10085 10088 10092 10095 10098 10101 10104 10107 10111 10115 10119 10123 10128 10133 10138 10143
10083 10081 10078 10076 10074 10072 10070 10067 10066 10064 10062 10060 10058 10057 10055 10054 10053 10052 10050 10048 10047 10046 10044 10043 10043 10042 10041 10040 10039 10038 10038 10037 10035 10035 10034 10034 10034 10035 10035 10037 10037 10038 10040 10040 10042 10042 10043 10043 10044 10045 10045 10046 10047 10048 10048 10049 10050 10050 10051 10053 10054 10056 10057 10059 10062 10065 10068 10070 10073 10075 10078 10082 10085 10089 10092 10095 10098 10101 10105 10109 10113 10117 10122 10127 10132 10136
10074 10072 10070 10067 10065 10063 10060 10058 10057 10055 10053 10051 10050 10048 10047 10045 10045 10043 10042 10040 10039 10038 10037 10036 10035 10035 10033 10033 10032 10031 10030 10029 10028 10027 10027 10027 10027 10027 10028 10029 10030 10031 10032 10032 10033 10034 10035 10035 10037 10037 10038 10038 10039 10039 10040 10040 10042 10042 10043 10045 10047 10049 10050 10052 10055 10058 10061 10063 10066 10069 10072 10076 10080 10083 10086 10090 10092 10095 10098 10103 10107 10112 10116 10120 10125 10130
10065 10063 10061 10058 10057 10054 10052 10050 10048 10047 10045 10043 10042 10040 10038 10037 10037 10035 10033 10032 10032 10031 10030 10028 10028 10027 10026 10025 10024 10023 10023 10022 10021 10020 10020 10020 10020 10021 10022 10022 10023 10023 10024 10025 10025 10026 10027 10028 10028 10029 10030 10031 10031 10032 10032 10033 10034 10035 10037 10039 10041 10042 10044 10047 10049 10052 10055 10057 10060 10063 10067 10070 10074 10077 10080 10083 10086 10089 10093 10097 10102 10105 10110 10114 10118 10123
10057 10055 10053 10050 10048 10046 10043 10042 10040 10038 10037 10035 10033 10032 10030 10029 10028 10027 10027 10025 10024 10023 10022 10022 10020 10020 10018 10017 10017 10016 10015 10015 10014 10013 10013 10013 10013 10013 10014 10015 10015 10016 10017 10018 10018 10019 10020 10020 10021 10022 10022 10023 10024 10025 10026 10027 10028 10030 10031 10033 10035 10037 10039 10041 10043 10047 10049 10052 10055 10058 10062 10065 10068 10071 10073 10077 10080 10083 10087 10092 10095 10100 10104 10108 10113 10117
10049 10047 10045 10043 10040 10038 10036 10034 10033 10031 10030 10028 10026 10025 10023 10022 10021 10020 10020 10018 10017 10016 10015 10014 10013 10013 10012 10010 10010 10009 10008 10008 10007 10007 10007 10007 10007 10007 10008 10008 10008 10010 10010 10011 10012 10013 10013 10013 10013 10014 10015 10017 10017 10018 10020 10022 10023 10024 10025 10027 10029 10031 10033 10036 10038 10041 10043 10047 10050 10053 10056 10059 10062 10065 10067 10070 10074 10078 10082 10086 10090 10093 10098 10103 10107 10112